Home   Weather   Gliwice   Past weeks

Flag for Poland Past Weather in Gliwice, Poland — Yesterday and Last 2 Weeks

Now
43 °F

Partly sunny.


Feels Like: 35 °F
Forecast: 38 / 41 °F
Wind: 17 mph from Southwest

Location: Katowice Airport

Current Time: Dec 10, 2016 at 10:06:46 am

Latest Report: Dec 10, 2016 at 9:30 am


Visibility: 4 mi

Pressure: 30.09 "Hg

Humidity: 87%

Dew Point: 39 °F

Location of GliwiceLocation

Past Weather in Gliwice — Graph

°F

Gliwice Temperature Yesterday

Maximum temperature yesterday: 43 °F (at 10:30 pm)
Minimum temperature yesterday: 32 °F (at 6:30 am)
Average temperature yesterday: 37 °F

High & Low Weather Summary for the Past Weeks

 TemperatureHumidityPressure
High43 °F (Dec 9, 10:30 pm)100% (Nov 25, 9:00 am)30.63 "Hg (Nov 25, 9:00 am)
Low18 °F (Dec 5, 1:30 am)41% (Dec 5, 2:00 pm)29.45 "Hg (Dec 2, 3:30 am)
Average32 °F87%30.17 "Hg
* Reported Nov 25 9:00 am — Dec 10 9:00 am, Gliwice, Weather by CustomWeather, © 2016

Note: Actual official high and low records may vary slightly from our data, if they occured in-between our weather recording intervals... More about our weather records

Advertising

Gliwice Weather History for the Previous 24 Hours

Scroll right to see more
 ConditionsComfort  
Time TempWeatherWind HumidityBarometerVisibility
9:00 am
Sat, Dec 10
43 °FPartly sunny.17 mph87%30.09 "Hg4 mi
8:30 am41 °FFog.15 mph93%30.09 "Hg3 mi
8:00 am41 °FFog.16 mph93%30.09 "Hg3 mi
7:30 am41 °FFog.13 mph93%30.09 "Hg3 mi
7:00 am41 °FDrizzle. Fog.12 mph93%30.09 "Hg2 mi
6:30 am39 °FDrizzle. Fog.12 mph100%30.12 "Hg1 mi
6:00 am39 °FDrizzle. Fog.12 mph100%30.12 "Hg2 mi
5:30 am39 °FDrizzle. Fog.10 mph93%30.15 "Hg2 mi
5:00 am39 °FOvercast.10 mph93%30.15 "Hg4 mi
4:30 am39 °FFog.10 mph93%30.15 "Hg3 mi
4:00 am39 °FFog.10 mph93%30.15 "Hg3 mi
3:30 am39 °FFog.9 mph93%30.18 "Hg3 mi
3:00 am41 °FFog.13 mph93%30.18 "Hg3 mi
2:30 am41 °FMostly cloudy.13 mph93%30.18 "Hg5 mi
2:00 am41 °FOvercast.13 mph93%30.18 "Hg6 mi
1:30 am41 °FMostly cloudy.14 mph93%30.18 "Hg4 mi
1:00 am41 °FMostly cloudy.12 mph93%30.21 "Hg4 mi
12:30 am43 °FMostly cloudy.13 mph93%30.21 "Hg4 mi
12:00 am43 °FMostly cloudy.13 mph93%30.21 "Hg4 mi
11:30 pm
Fri, Dec 9
43 °FMostly cloudy.15 mph93%30.21 "Hg4 mi
11:00 pm43 °FFog.15 mph93%30.24 "Hg3 mi
10:30 pm43 °FFog.16 mph93%30.21 "Hg3 mi
10:00 pm41 °FFog.15 mph100%30.21 "Hg2 mi
9:30 pm41 °FFog.14 mph100%30.21 "Hg2 mi
9:00 pm41 °FDrizzle. Fog.14 mph100%30.24 "Hg2 mi
8:30 pm41 °FDrizzle. Fog.14 mph93%30.21 "Hg1 mi
8:00 pm41 °FDrizzle. Fog.14 mph93%30.21 "Hg1 mi
7:30 pm41 °FDrizzle. Fog.15 mph93%30.21 "Hg2 mi
7:00 pm41 °FDrizzle. Fog.16 mph93%30.21 "Hg3 mi
6:30 pm41 °FLow clouds.15 mph93%30.18 "Hg5 mi
6:00 pm41 °FMostly cloudy.16 mph87%30.18 "Hg4 mi
5:30 pm39 °FLow clouds.14 mph93%30.18 "Hg4 mi
5:00 pm39 °FFog.14 mph93%30.18 "Hg3 mi
4:30 pm39 °FDrizzle. Fog.14 mph87%30.18 "Hg3 mi
4:00 pm39 °FMostly cloudy.12 mph87%30.18 "Hg4 mi
3:30 pm39 °FOvercast.12 mph81%30.18 "Hg4 mi
3:00 pm37 °FOvercast.13 mph87%30.18 "Hg4 mi
2:30 pm37 °FLight rain. Fog.9 mph87%30.18 "Hg2 mi
2:00 pm37 °FFog.14 mph87%30.18 "Hg2 mi
1:30 pm37 °FBroken clouds.13 mph81%30.18 "Hg4 mi
1:00 pm37 °FMore clouds than sun.13 mph75%30.18 "Hg4 mi
12:30 pm37 °FMore clouds than sun.12 mph75%30.18 "Hg4 mi
12:00 pm36 °FLight rain. Fog.13 mph81%30.18 "Hg3 mi
11:30 am37 °FPartly sunny.13 mph70%30.21 "Hg4 mi
11:00 am36 °FPartly sunny.14 mph81%30.21 "Hg4 mi
10:30 am36 °FBroken clouds.10 mph75%30.21 "Hg4 mi
10:00 am36 °FPartly sunny.8 mph75%30.21 "Hg4 mi
Weather by CustomWeather, © 2016

See weather overviewHow to use our weather pages